GOSAT (IBUKI)

Last updated on Thu Nov 21 2024 00:02:26 GMT+0000 (Coordinated Universal Time)

1 33492U 09002A 24325.25307255 .00001661 00000+0 30120-3 0 9999 2 33492 98.0513 73.9589 0001297 86.8192 273.3161 14.67562639847284
UTC large
Height (km)
Speed (km/s)
/
Latitude / Longitude
Inclination (degrees)
Orbital Period (minutes)
Azimuth
Elevation
Range (km)
Doppler Factor

Next 0 passes for location: London (51.5072 / 0.1276)

Sorry there are no passes over London.